Location: Hopville
(44.8032°N, 123.1329°W)
Time: 16:48:27
(UTC+00:00)

Cosmos 1939 Rocket - Pass Details

Date: 24 January 2021
Orbit: 531 x 585 km, 97.4° (Epoch: 01 March)

Event Time Altitude Azimuth Distance (km) Brightness Sun altitude
Rises 14:43:54 0° 17° (NNE) 2,722 6.4 -10.0°
Reaches altitude 10° 14:46:06 10° 23° (NNE) 1,816 5.5 -9.6°
Maximum altitude 14:49:54 48° 99° (E) 711 3.9 -9.0°
Drops below altitude 10° 14:53:37 10° 174° (S) 1,781 5.8 -8.4°
Sets 14:55:46 0° 181° (S) 2,663 6.6 -8.0°
